星链-36090(STARLINK-36090)

导读 | 豆包AI

STARLINK-36090是美国SpaceX公司星链(Starlink)星座的一颗低轨通信卫星,于2025年12月2日发射入轨。作为星链全球互联网星座的组成部分,它服务于全球覆盖高速宽带互联网的建设目标,采用平板设计搭配太阳能电池阵,搭载Ku/Ka波段通信载荷与光学星间链路,以氪工质霍尔推进器实现轨道机动与末期离轨,可自主避撞,寿命约5-7年,退役后将再入大气层焚毁。

基本信息
目录编号:
66855
目录名称:
STARLINK-36090
国际标识:
2025-281H
轨道中心:
EARTH
卫星名称:
星链-36090
卫星全名:
星链-36090(STARLINK-36090)
卫星状态:
在轨 (已飞行102 天)
发射日期:
2025-12-02 UTC
国别 :
美国 (US)
星等 :
--
轨道信息
数据来源 国际轨道数据
星历时间: 2026-03-13T09:10:23+0800
1天前
查看轨道信息
半长轴: 6861.178km
偏心率: 0.0001873
轨道倾角: 43.002°
近地点辐角 263.096°
升交点赤经 324.121°
平近点角 96.968°
近地点: 481.755km
远地点: 484.327km
周期: 94.267分钟
每日圈数: 15.275828
详细信息
固有亮度:
5
最大亮度:
2.5
卫星平台:
Starlink V1.0
覆盖范围:
全球
运营商:
太空探索技术公司
运营商所在国:
美国
制造商(研发单位):
太空探索技术公司
制造商所在国:
美国
使用方式:
暂无
卫星简介
Starlink 计划是 SpaceX 推出的全球卫星互联网项目,通过发射低轨道卫星,为全球尤其是偏远地区提供高速、低延迟的互联网服务。自 2019 年起,Starlink 已部署数千颗卫星,旨在缩小全球数字鸿沟,推动互联网普及。该项目还为军事、航空等行业提供通信支持,带来广泛经济效益。
2D轨道图
3D轨道图
轨道高度分析图
轨道倾角分析图
轨道综合分析图
查看轨道综合分析图